This is the latest recevied weather packets stored in our database for station/object N7NIP. If no packets are shown the sender has not sent any weather packets the latest 10 day(s).
| Time | Temp. | Humidity | Pressure | Rain* | Wind** | Luminosity | Snow |
|---|---|---|---|---|---|---|---|
| 1777944786 | 25° C | 36% | 1023.7 hPa | 0 mm | - | 174 W/m² | - |
| 1777944485 | 25.56° C | 34% | 1023.6 hPa | 0 mm | - | 191 W/m² | - |
| 1777944182 | 25.56° C | 34% | 1023.6 hPa | 0 mm | - | 207 W/m² | - |
| 1777943877 | 25° C | 35% | 1023.7 hPa | 0 mm | - | 223 W/m² | - |
| 1777943575 | 25.56° C | 38% | 1023.5 hPa | 0 mm | - | 239 W/m² | - |
| 1777943270 | 25° C | 38% | 1023.6 hPa | 0 mm | - | 257 W/m² | - |
| 1777942967 | 25° C | 38% | 1023.7 hPa | 0 mm | - | 278 W/m² | - |
| 1777942663 | 25° C | 36% | 1023.7 hPa | 0 mm | - | 301 W/m² | - |
| 1777942360 | 25.56° C | 36% | 1023.8 hPa | 0 mm | - | 319 W/m² | - |
| 1777942057 | 26.11° C | 35% | 1023.7 hPa | 0 mm | - | 334 W/m² | - |
| 1777941753 | 25.56° C | 37% | 1023.8 hPa | 0 mm | - | 349 W/m² | - |
| 1777941451 | 25.56° C | 36% | 1024 hPa | 0 mm | - | 357 W/m² | - |
| 1777941149 | 26.11° C | 36% | 1023.6 hPa | 0 mm | - | 378 W/m² | - |
| 1777940845 | 25.56° C | 38% | 1023.7 hPa | 0 mm | - | 400 W/m² | - |
| 1777940542 | 25.56° C | 41% | 1023.7 hPa | 0 mm | - | 408 W/m² | - |
| 1777940240 | 25.56° C | 38% | 1023.6 hPa | 0 mm | - | 428 W/m² | - |
| 1777939937 | 25.56° C | 37% | 1023.8 hPa | 0 mm | - | 444 W/m² | - |
| 1777939634 | 26.11° C | 37% | 1023.9 hPa | 0 mm | - | 461 W/m² | - |
| 1777939332 | 26.11° C | 39% | 1023.7 hPa | 0 mm | - | 475 W/m² | - |
| 1777939028 | 26.11° C | 38% | 1023.7 hPa | 0 mm | - | 494 W/m² | - |
| 1777938724 | 26.67° C | 36% | 1023.6 hPa | 0 mm | - | 510 W/m² | - |
| 1777938422 | 26.67° C | 37% | 1023.9 hPa | 0 mm | - | 530 W/m² | - |
| 1777938119 | 26.67° C | 35% | 1023.9 hPa | 0 mm | - | 545 W/m² | - |
| 1777937814 | 26.67° C | 34% | 1023.9 hPa | 0 mm | - | 563 W/m² | - |
| 1777937511 | 26.11° C | 38% | 1023.8 hPa | 0 mm | - | 580 W/m² | - |
* Rain latest hour (hover to see other rain measurements)
** Current wind speed in m/s (hover to see current wind gust speed)